TimeHST,TemperatureF,Dew PointF,Humidity,Sea Level PressureIn,VisibilityMPH,Wind Direction,Wind SpeedMPH,Gust SpeedMPH,PrecipitationIn,Events,Conditions,WindDirDegrees,DateUTC
12:54 AM,75.0,66.0,73,30.02,10.0,East,5.8,18.4,N/A,,Mostly Cloudy,100,2013-10-01 10:54:00
1:54 AM,75.9,64.0,67,30.00,10.0,East,3.5,-,N/A,,Partly Cloudy,80,2013-10-01 11:54:00
2:54 AM,72.0,64.0,76,29.99,10.0,East,3.5,-,N/A,,Scattered Clouds,90,2013-10-01 12:54:00
3:54 AM,70.0,64.0,81,29.98,10.0,SE,3.5,-,N/A,,Partly Cloudy,140,2013-10-01 13:54:00
4:54 AM,69.1,63.0,81,29.99,10.0,ESE,4.6,-,N/A,,Clear,110,2013-10-01 14:54:00
5:54 AM,68.0,63.0,84,30.00,10.0,SE,8.1,-,N/A,,Scattered Clouds,130,2013-10-01 15:54:00
6:54 AM,70.0,63.0,78,30.01,10.0,Calm,Calm,-,N/A,,Scattered Clouds,0,2013-10-01 16:54:00
7:54 AM,75.9,66.0,71,30.02,10.0,Calm,Calm,-,N/A,,Mostly Cloudy,0,2013-10-01 17:54:00
8:54 AM,82.0,66.9,60,30.02,10.0,ENE,12.7,24.2,N/A,,Partly Cloudy,70,2013-10-01 18:54:00
9:54 AM,86.0,66.9,53,30.02,10.0,ENE,10.4,19.6,N/A,,Partly Cloudy,70,2013-10-01 19:54:00
10:54 AM,87.1,68.0,53,30.01,10.0,East,20.7,26.5,N/A,,Scattered Clouds,80,2013-10-01 20:54:00
11:54 AM,89.1,66.9,48,29.99,10.0,ENE,16.1,21.9,N/A,,Partly Cloudy,70,2013-10-01 21:54:00
12:54 PM,89.1,68.0,50,29.97,10.0,NE,18.4,27.6,N/A,,Scattered Clouds,50,2013-10-01 22:54:00
1:54 PM,89.1,68.0,50,29.94,10.0,East,15.0,25.3,N/A,,Scattered Clouds,80,2013-10-01 23:54:00
2:54 PM,88.0,66.0,48,29.92,10.0,ENE,18.4,25.3,N/A,,Scattered Clouds,70,2013-10-02 00:54:00
3:54 PM,88.0,68.0,51,29.92,10.0,ENE,16.1,23.0,N/A,,Scattered Clouds,70,2013-10-02 01:54:00
4:54 PM,86.0,66.0,51,29.91,10.0,East,12.7,21.9,N/A,,Partly Cloudy,80,2013-10-02 02:54:00
5:54 PM,82.9,66.0,56,29.93,10.0,ENE,13.8,19.6,N/A,,Partly Cloudy,70,2013-10-02 03:54:00
6:54 PM,79.0,66.9,66,29.96,10.0,ENE,12.7,21.9,N/A,,Clear,70,2013-10-02 04:54:00
7:54 PM,78.1,66.0,66,29.97,10.0,ENE,15.0,26.5,N/A,,Clear,70,2013-10-02 05:54:00
8:54 PM,78.1,64.9,64,29.98,10.0,East,10.4,19.6,N/A,,Clear,90,2013-10-02 06:54:00
9:54 PM,77.0,64.0,64,29.99,10.0,East,9.2,-,N/A,,Partly Cloudy,90,2013-10-02 07:54:00
10:54 PM,77.0,64.0,64,30.00,10.0,East,6.9,-,N/A,,Clear,90,2013-10-02 08:54:00
11:54 PM,75.9,66.0,71,30.00,10.0,East,3.5,-,N/A,,Clear,80,2013-10-02 09:54:00